TERRA

Last updated on July 7, 2021, 6:13 p.m. UTC

1 25994U 99068A   21188.20957940  .00000064  00000-0  24218-4 0  9998
2 25994  98.1754 262.2712 0001295  91.7789 326.3712 14.57131801146348
UTC
Height (km)
Latitude
Longitude
Inclination
Orbital Period
UTC large
Height (km)
Speed (km/s)
/
Latitude / Longitude
Inclination (degrees)
Orbital Period (minutes)
Azimuth
Elevation
Range (km)
Doppler Factor
iOS Compass Heading
iOS Angle